TimeMST,TemperatureF,Dew PointF,Humidity,Sea Level PressureIn,VisibilityMPH,Wind Direction,Wind SpeedMPH,Gust SpeedMPH,PrecipitationIn,Events,Conditions,WindDirDegrees,DateUTC
12:55 AM,62.1,18.0,18,30.01,10.0,North,9.2,-,N/A,,Clear,350,2012-01-12 07:55:00
1:00 AM,-9999,-9999,N/A,-9999,-9999.0,North,-9999.0,-,N/A,,Unknown,0,2012-01-12 08:00:00
1:55 AM,61.0,15.1,17,30.01,10.0,NW,6.9,-,N/A,,Clear,320,2012-01-12 08:55:00
2:55 AM,60.1,14.0,16,30.01,10.0,North,9.2,-,N/A,,Clear,350,2012-01-12 09:55:00
3:55 AM,60.1,12.0,15,30.00,10.0,North,10.4,-,N/A,,Clear,10,2012-01-12 10:55:00
4:55 AM,57.0,16.0,20,30.01,10.0,NNE,4.6,-,N/A,,Clear,20,2012-01-12 11:55:00
5:55 AM,57.9,10.9,16,30.02,10.0,NNE,8.1,-,N/A,,Clear,20,2012-01-12 12:55:00
6:55 AM,55.9,16.0,21,30.04,10.0,NNE,6.9,-,N/A,,Mostly Cloudy,30,2012-01-12 13:55:00
7:55 AM,55.0,19.0,24,30.06,10.0,North,4.6,-,N/A,,Mostly Cloudy,360,2012-01-12 14:55:00
8:55 AM,59.0,12.9,16,30.06,10.0,North,11.5,-,N/A,,Mostly Cloudy,10,2012-01-12 15:55:00
9:55 AM,61.0,12.0,15,30.08,10.0,NNE,12.7,-,N/A,,Mostly Cloudy,20,2012-01-12 16:55:00
10:55 AM,62.1,12.9,15,30.09,10.0,North,10.4,-,N/A,,Mostly Cloudy,360,2012-01-12 17:55:00
11:55 AM,64.9,10.9,12,30.08,10.0,NNE,16.1,23.0,N/A,,Mostly Cloudy,20,2012-01-12 18:55:00
12:55 PM,63.0,12.0,14,30.05,10.0,North,17.3,21.9,N/A,,Mostly Cloudy,10,2012-01-12 19:55:00
1:55 PM,64.0,12.9,14,30.03,10.0,North,11.5,19.6,N/A,,Mostly Cloudy,360,2012-01-12 20:55:00
2:55 PM,64.0,10.9,13,30.02,10.0,North,12.7,-,N/A,,Mostly Cloudy,10,2012-01-12 21:55:00
3:55 PM,64.0,12.0,13,30.02,10.0,North,11.5,-,N/A,,Clear,10,2012-01-12 22:55:00
4:55 PM,64.0,10.9,13,30.03,10.0,NNE,9.2,-,N/A,,Clear,20,2012-01-12 23:55:00
5:55 PM,61.0,12.9,15,30.04,10.0,NNW,3.5,-,N/A,,Clear,330,2012-01-13 00:55:00
6:13 PM,-9999,-9999,N/A,-9999,-9999.0,North,-9999.0,-,N/A,,Unknown,0,2012-01-13 01:13:00
6:55 PM,59.0,12.0,16,30.05,10.0,Calm,Calm,-,N/A,,Clear,0,2012-01-13 01:55:00
7:55 PM,55.9,12.9,18,30.05,10.0,North,8.1,-,N/A,,Clear,350,2012-01-13 02:55:00
8:55 PM,57.9,10.9,16,30.07,10.0,NW,4.6,-,N/A,,Clear,320,2012-01-13 03:55:00
9:55 PM,51.1,17.1,26,30.08,10.0,WNW,3.5,-,N/A,,Clear,290,2012-01-13 04:55:00
10:55 PM,46.9,19.0,33,30.08,10.0,Calm,Calm,-,N/A,,Clear,0,2012-01-13 05:55:00
11:55 PM,46.9,18.0,32,30.09,10.0,Calm,Calm,-,N/A,,Clear,0,2012-01-13 06:55:00